GLOBALSTAR M072

Last updated on Sat Sep 05 2026 00:03:15 GMT+0000 (Coordinated Universal Time)

1 31574U 07020D 26247.42547240 -.00000066 00000+0 24562-3 0 9992 2 31574 51.9909 249.2930 0001336 99.8721 67.9453 11.91660039884429
UTC large
Height (km)
Speed (km/s)
/
Latitude / Longitude
Inclination (degrees)
Orbital Period (minutes)
Azimuth
Elevation
Range (km)
Doppler Factor

Next 0 passes for location: London (51.5072 / 0.1276)

No passes found over London.
GLOBALSTAR M072